Flag Weather past 2 weeks in Haldimand, Ontario, Canada

Now
32 °F

Snow flurries. Cloudy.


Feels Like: 26 °F
Forecast: N/A
Wind: 6 mph from Northwest

Location: Hamilton Airport

Current Time: Nov 27, 2014 at 4:28:21 PM

Latest Report: Nov 27, 2014 at 4:00 PM


Visibility: 7 mi

Pressure: 30.08 "Hg

Humidity: 80%

Dew point: 27 °F

Location of HaldimandLocation

Historic Weather in Haldimand — Graph

°F

Haldimand temperature yesterday

Maximum temperature yesterday: 34 °F (at 1:00 PM)
Minimum temperature yesterday: 30 °F (at 1:00 AM)
Average temperature yesterday: 31 °F

Past Weeks' High & Low Weather Summary

 TemperatureHumidityPressure
High61 °F (Nov 24, 11:00 AM)100% (Nov 16, 7:00 PM)30.47 "Hg (Nov 16, 7:00 PM)
Low9 °F (Nov 19, 6:00 AM)47% (Nov 15, 2:00 PM)29.17 "Hg (Nov 24, 12:00 PM)
Average29 °F78%29.99 "Hg
* Reported Nov 12 3:00 PM — Nov 27 3:03 PM, Haldimand, Weather by CustomWeather, © 2014

Note: Actual official high and low records may vary slightly from our data, if they occured in-between our weather recording intervals... More about our weather records

Advertising

Haldimand weather history for previous 24 hours

 ConditionsComfort  
Time TempWeatherWind HumidityBarometerVisibility
3:03 PM
Nov 27
34 °FSnow flurries. Mostly cloudy.8 mph75%30.06 "Hg6 mi
2:00 PM34 °FMostly cloudy.8 mph81%30.06 "Hg15 mi
1:00 PM34 °FMore clouds than sun.10 mph75%30.06 "Hg15 mi
12:00 PM32 °FMore clouds than sun.10 mph80%30.08 "Hg15 mi
11:00 AM30 °FMore clouds than sun.7 mph86%30.10 "Hg15 mi
10:00 AM30 °FLight snow. Partly sunny.7 mph86%30.09 "Hg15 mi
9:00 AM28 °FLight snow. More clouds than sun.6 mph93%30.09 "Hg15 mi
8:00 AM28 °FLight snow. More clouds than sun.3 mph86%30.09 "Hg15 mi
7:00 AM28 °FLight snow. Mostly cloudy.3 mph80%30.08 "Hg15 mi
6:00 AM28 °FLight snow. Mostly cloudy.3 mph80%30.06 "Hg6 mi
5:00 AM28 °FLight snow. Overcast.2 mph86%30.06 "Hg15 mi
4:00 AM28 °FLight snow. Mostly cloudy.3 mph86%30.06 "Hg15 mi
3:00 AM28 °FLight snow. Overcast.No wind86%30.07 "Hg15 mi
2:00 AM28 °FLight snow. Mostly cloudy.7 mph93%30.07 "Hg7 mi
1:00 AM30 °FHail. Overcast.2 mph93%30.07 "Hg10 mi
12:00 AM30 °FSnow flurries. Overcast.2 mph93%30.08 "Hg12 mi
11:00 PM
Nov 26
30 °FSnow flurries. Low clouds.6 mph93%30.07 "Hg12 mi
10:00 PM30 °FSnow flurries. Overcast.8 mph80%30.09 "Hg5 mi
9:00 PM32 °FSnow flurries. Overcast.8 mph80%30.08 "Hg15 mi
8:00 PM32 °FSnow flurries. Mostly cloudy.13 mph87%30.09 "Hg10 mi
7:00 PM32 °FSnow flurries. Overcast.13 mph87%30.08 "Hg5 mi
6:00 PM32 °FSnow flurries. Overcast.10 mph93%30.10 "Hg5 mi
5:00 PM32 °FSnow flurries. Overcast.14 mph87%30.10 "Hg2 mi
4:00 PM34 °FBroken clouds.13 mph75%30.11 "Hg15 mi
Weather by CustomWeather, © 2014

See weather overviewHow to use our weather pages